Regional Weather Roundup
Issued by NWS

Home | Current Version | Previous Version | Text Only | Print | Product List | Glossary Off
Versions: 1 2 3 4 5 6 7 8 9 10 11 12 13 14 15 16 17 18 19 20 21 22 23 24 25 26 27 28 29 30 31 32 33 34 35 36 37 38 39 40 41 42 43 44 45 46 47 48 49 50

000
ASUS43 KBIS 011410
RWRND

NORTH DAKOTA REGIONAL WEATHER ROUNDUP
NATIONAL WEATHER SERVICE BISMARCK ND
800 AM CST SUN MAR 01 2015

NOTE: "FAIR" INDICATES FEW OR NO CLOUDS BELOW 12,000 FEET WITH NO
SIGNIFICANT WEATHER AND/OR OBSTRUCTIONS TO VISIBILITY.


NDZ001>003-009>011-017-011500-
NORTHWEST NORTH DAKOTA

CITY           SKY/WX    TMP DP  RH WIND       PRES   REMARKS
WILLISTON      CLOUDY    12   8  84 W3        30.21R
MINOT          PTCLDY     8   3  80 W13       30.14R WCI  -8
MINOT AFB      CLOUDY     7   5  92 NW15      30.14R WCI -11
$$

NDZ018>021-031>035-040>046-011500-
SOUTHWEST NORTH DAKOTA

CITY           SKY/WX    TMP DP  RH WIND       PRES   REMARKS
BISMARCK       PTCLDY     8   3  80 CALM      30.19R
DICKINSON      CLEAR     12   7  80 W12       30.14R WCI  -2
GARRISON         N/A     10   6  84 W14       30.15R WCI  -6
HETTINGER ARPT PTCLDY    11   6  81 W14       30.18R WCI  -5
$$

NDZ004>008-012>016-024-026-027-054-011500-
NORTHEAST NORTH DAKOTA

CITY           SKY/WX    TMP DP  RH WIND       PRES   REMARKS
GRAND FORKS    MOCLDY     1  -5  75 SW6       30.15S WCI -10
GRND FRKS AFB  CLEAR      6  -2  70 NW8       30.14R WCI  -7
DEVILS LAKE    CLOUDY     9   1  72 W12       30.11R WCI  -6
$$

NDZ022-023-025-028>030-036>039-047>053-011500-
SOUTHEAST NORTH DAKOTA

CITY           SKY/WX    TMP DP  RH WIND       PRES   REMARKS
FARGO          CLEAR      4  -3  73 SW12      30.20S WCI -12
JAMESTOWN      PTCLDY     8   1  73 W14       30.14S WCI  -8
$$



USA.gov is the U.S. government's official web portal to all federal, state and local government web resources and services.